Location: *
(41.7492°S, 135.4150°W)
Time: 08:58:40
(UTC+00:00)

Daily predictions for brighter satellites

Satellite Brightness Start Highest point End
(mag) Time Altitude Azimuth Time Altitude Azimuth Time Altitude Azimuth
BREEZE-M DEB (TANK) 4.0 12:09:21 58° ENE 12:09:21 58° ENE 12:17:25 10° ENE
METEOR-M 4.1 12:18:36 78° ENE 12:18:47 79° ESE 12:24:13 10° S
Meteor 1-10 Rocket 4.2 12:16:16 10° S 12:21:58 77° E 12:23:40 46° NNE
Cosmos 1092 Rocket 3.9 12:24:28 70° WSW 12:24:28 70° WSW 12:30:44 10° S
Cosmos 1408 Rocket 4.5 12:29:52 41° S 12:29:52 41° S 12:32:49 10° S
Cosmos 1500 Rocket 4.0 12:32:17 57° ENE 12:32:37 59° E 12:37:03 10° SSE
Cosmos 2297 Rocket 4.4 12:34:21 11° SW 12:34:21 11° SW 12:35:36 10° SSW
Lacrosse 5 rocket 3.7 12:41:04 12° S 12:41:04 12° S 12:42:06 10° S
Cosmos 2251 Rocket 3.5 12:41:21 63° WSW 12:41:21 63° WSW 12:46:29 10° SSE
SL-4 R/B 4.1 12:45:33 20° SSW 12:47:46 29° SSE 12:52:00 10° ESE
Meteor 1-27 Rocket 3.6 12:49:35 10° S 12:55:15 90° ESE 13:00:56 10° N
Cosmos 2227 Rocket 4.4 12:55:21 11° SW 12:55:21 11° SW 12:56:31 10° SSW
ALOS 4.4 12:59:08 13° SW 12:59:08 13° SW 12:59:44 10° SSW
Meteor 1-31 Rocket 3.9 12:54:20 10° NE 12:58:00 44° ESE 13:01:42 10° S
SL-24 DEB 4.4 13:01:57 49° W 13:01:57 49° W 13:06:21 10° SSW
Hubble Space Telescope 3.1 13:04:36 13° N 13:04:36 13° N 13:06:11 10° NNE
Meteor 2-14 Rocket 4.4 13:02:32 30° NNW 13:05:38 61° W 13:11:49 10° S
USA 305 3.9 13:04:22 28° N 13:06:05 41° NE 13:10:12 10° ESE
Cosmos 2292 Rocket 4.3 13:07:07 42° WNW 13:08:16 49° WSW 13:14:28 10° S
Cosmos 1743 Rocket 3.7 13:12:01 44° WNW 13:12:55 52° WSW 13:17:21 10° S
Cosmos 1140 Rocket 3.4 13:11:29 28° NNW 13:14:21 76° WSW 13:19:41 10° SSE
Cosmos 2228 Rocket 3.0 13:10:21 10° S 13:14:52 87° W 13:19:20 10° N
Cosmos 1602 3.8 13:14:30 14° N 13:17:51 78° E 13:21:48 10° S
ADEOS Rocket 4.4 13:14:51 10° SSW 13:18:03 17° WSW 13:18:03 17° WSW
USA 307 3.7 13:16:19 23° NNW 13:18:38 46° NE 13:22:48 10° ESE
Cosmos 2263 Rocket 3.1 13:17:45 27° WSW 13:18:47 29° SW 13:23:40 10° S
Cosmos 407 Rocket 3.5 13:16:10 27° NW 13:19:05 65° WSW 13:24:30 10° SSE
Cosmos 1553 Rocket 4.0 13:18:22 10° SSW 13:24:21 53° W 13:30:14 10° NNW
Milstar 3 4.0 13:20:41 19° NW 13:25:00 30° N 13:30:46 10° ENE
Lacrosse 5 3.6 13:27:40 16° NNW 13:27:40 16° NNW 13:29:16 10° NNW
Meteor 2-16 Rocket 4.4 13:20:52 10° NNW 13:26:56 66° W 13:33:04 10° S
Cosmos 1666 Rocket 4.3 13:22:58 10° N 13:27:17 56° E 13:31:42 10° SSE
Cosmos 1500 3.9 13:23:35 10° N 13:27:22 57° E 13:31:14 10° SSE
Cosmos 1190 Rocket 3.9 13:23:22 16° NNW 13:27:34 76° WSW 13:32:54 10° SSE
Cosmos 1340 Rocket 3.9 13:25:26 10° NNE 13:29:12 45° E 13:33:01 10° SSE
SL-16 R/B 3.9 13:27:13 10° SSW 13:31:32 20° WSW 13:32:56 19° WSW
USA 306 3.1 13:31:02 22° NW 13:33:45 68° NE 13:38:05 10° SE
NOSS 3-4 (A) 4.5 13:34:53 22° W 13:35:43 23° WNW 13:40:21 10° NNW
NOSS 3-4 (C) 4.5 13:34:40 22° W 13:35:51 23° WNW 13:40:32 10° NNW
USA 308 3.2 13:34:48 19° NW 13:37:48 67° NE 13:42:08 10° SE
CZ-4C R/B 3.7 13:35:53 10° S 13:40:11 51° WSW 13:44:00 12° NNW
ATLAS 2AS CENTAUR R/B 2.9 13:33:28 10° SW 13:40:13 52° WNW 13:47:25 10° N
Cosmos 839 Rocket 4.2 13:34:40 10° NNW 13:40:59 83° WSW 13:48:45 10° SSE
YAOGAN 6 2.7 13:42:17 10° N 13:45:43 49° W 13:49:14 10° SSW
Cosmos 1655 Rocket 4.1 13:39:52 10° NNW 13:46:06 60° W 13:52:28 10° S
Cosmos 1943 4.0 13:41:25 10° SW 13:46:13 28° WNW 13:50:59 10° NNW
Meteor 1-25 Rocket 4.4 13:47:19 10° NNW 13:52:54 51° WSW 13:58:28 10° S
SL-08 R/B 3.4 13:50:09 10° S 13:55:02 65° WSW 13:59:47 10° NNW
CZ-4B R/B 4.5 13:56:04 10° NNW 13:59:17 28° W 14:02:34 10° SW
Cosmos 1862 Rocket 3.8 13:56:24 10° S 14:00:51 75° E 14:05:12 10° NNE
Cosmos 1707 Rocket 3.6 13:56:41 10° SSW 14:01:04 60° W 14:05:24 10° N
Cosmos 2315 Rocket 4.0 13:56:34 10° S 14:02:54 76° W 14:09:14 10° N
H-2A R/B 3.6 14:01:05 10° NNW 14:04:27 28° W 14:07:50 10° SW
Cosmos 1844 Rocket 2.9 14:00:56 10° NW 14:06:23 53° WSW 14:11:56 10° SSE
BREEZE-M DEB (TANK) 3.2 14:05:54 11° NW 14:08:12 71° NE 14:12:51 10° ESE
Sich 1 4.0 14:05:14 10° NW 14:09:04 28° WSW 14:12:55 10° SSW
ADEOS 4.0 14:04:26 10° NNW 14:09:20 40° W 14:14:18 10° SSW
Lacrosse 4 Rocket 3.9 14:06:08 10° NNE 14:09:54 27° ENE 14:13:42 10° SE
CZ-4B R/B 3.1 14:05:39 10° N 14:10:11 71° WNW 14:14:41 10° SSW
Cosmos 1666 2.7 14:06:46 10° N 14:10:39 81° W 14:14:36 10° S
Cosmos 1633 Rocket 3.1 14:07:25 10° NNW 14:11:46 57° W 14:16:10 10° S
Cosmos 724 4.3 14:06:33 10° NNW 14:12:20 84° WSW 14:18:12 10° SSE
Meteor 1-14 Rocket 4.2 14:08:24 10° NNW 14:13:58 79° W 14:19:37 10° S
Envisat 3.7 14:10:21 10° NNW 14:14:50 31° W 14:19:24 10° SSW
Cosmos 2266 Rocket 4.4 14:09:23 10° NW 14:14:59 38° WSW 14:20:44 10° S
RESURS DK-1 2.4 14:11:59 10° SSW 14:16:13 83° WNW 14:20:23 10° NNE
Okean O Rocket 4.4 14:16:12 10° ENE 14:19:43 23° ESE 14:23:18 10° SSE
Cosmos 1607 4.4 14:14:12 10° WNW 14:19:55 41° SW 14:25:43 10° SSE
SMAP 3.4 14:19:08 10° NNE 14:23:49 76° ESE 14:28:33 10° S
NOAA 12 4.1 14:18:46 10° N 14:24:07 79° WNW 14:29:34 10° SSW
Cosmos 1763 Rocket 3.5 14:21:39 10° SSW 14:27:00 80° WNW 14:32:20 10° NNE
SL-4 R/B 2.7 14:23:13 10° SW 14:28:07 70° SSE 14:32:52 10° ENE
OAO 2 Rocket 4.4 14:24:39 10° NW 14:29:06 34° N 14:33:36 10° ENE
H-2A R/B 4.0 14:26:03 10° NE 14:30:58 37° ESE 14:35:50 10° S
